Regional Weather Roundup
Issued by NWS Key West, FL

Current Version | Previous Version | Text Only | Print | Product List | Glossary On
Versions: 1 2 3 4 5 6 7 8 9 10 11 12 13 14 15 16 17 18 19 20 21 22 23 24 25 26 27 28 29 30 31 32 33 34 35 36 37 38 39 40 41 42 43 44 45 46 47 48 49 50
000 ASUS42 KKEY 191611 RWRKEY FLORIDA KEYS REGIONAL WEATHER ROUNDUP NATIONAL WEATHER SERVICE KEY WEST FLORIDA 1200 PM EDT MON APR 19 2021 ...FLORIDA KEYS... CITY SKY/WX TMP DP RH WIND PRES REMARKS KEY WEST FAIR 83 75 77 SW10 29.97R HX 90 BOCA CHICA NAS CLOUDY 83 77 82 S16 29.96S HX 92 MARATHON FAIR 86 75 69 S10G18 29.95S HX 95 ...SOUTH FLORIDA... CITY SKY/WX TMP DP RH WIND PRES REMARKS HOMESTEAD MOSUNNY 86 73 65 SW15G21 29.94F HX 93 WEST KENDALL LGT RAIN 89 71 55 SW16G24 29.94F HX 95 MIAMI PTSUNNY 88 72 58 SW14G21 29.94F HX 94 OPA LOCKA PTSUNNY 89 70 53 SW16G23 29.94F HX 94 PEMBROKE PINES PTSUNNY 88 70 55 SW16G24 29.94F HX 93 FT LAUDERDALE CLOUDY 88 73 61 SW17G24 29.91F HX 95 FT LAUD EXEC MOSUNNY 88 72 58 SW15G22 29.92F HX 94 POMPANO BEACH MOSUNNY 86 69 56 SW15 29.92F HX 90 BOCA RATON MOSUNNY 88 72 58 S16G25 29.93S HX 94 WEST PALM BCH CLOUDY 84 72 67 SW15G21 29.93F ...SOUTHWEST FLORIDA... CITY SKY/WX TMP DP RH WIND PRES REMARKS MARCO ISLAND CLOUDY 83 76 79 SW16 29.95F HX 91 NAPLES PTSUNNY 84 76 76 SW22 29.93S HX 93 FT MYERS-SW AP PTSUNNY 82 73 74 SW17G32 29.92S FORT MYERS PTSUNNY 83 76 79 SW14G26 29.91S HX 91 ...ADJACENT COASTAL WATERS... STATION/POSITION TIME SKY/WX TEMP WIND PRES WAVE AIR SEA DIR/SP/G HT/PER (UTC) (F) (DEG/KT/KT) (MB) (FT/S) PULASKI SHOAL LT NOT AVBL SAND KEY 1550 79 220/ 7/ 9 1015.2R SOMBRERO KEY 1550 79 210/ 14/ 17 1014.8R LONG KEY 1550 80 1014.9R FOWEY ROCKS 1500 81 77 200/ 16/ 17 1014.6F SATAN SHL BUOY 1530 80 78 N/A 3/ 4 LOOP CURR BUOY 1500 79 190/ 6/ 10 1013.7F PULLEY RDG BUOY 1556 78 N/A 5/ 6 ...INTERNATIONAL WEATHER... CITY SKY/WX TMP DP RH WIND PRES REMARKS NASSAU MOSUNNY 84 75 74 SW17 29.99S HX 92 HAVANA MOSUNNY 86 73 66 S13 29.94F HX 93 VARADERO PTSUNNY 90 70 51 S14 29.94F HX 95 CANCUN N/A N/A N/A N/A MISG N/A COZUMEL N/A N/A N/A N/A MISG N/A KINGSTON MOSUNNY 86 72 62 SE26 30.00S HX 92 BELIZE CITY MOSUNNY 82 75 78 NW6 29.92S $$

USA.gov is the U.S. government's official web portal to all federal, state and local government web resources and services.